Location: NJAA Observatory
(40.6819°N, 74.8979°W)
Time: 20:49:17
(UTC-04:00)

Cosmos 1328 Rocket - Visible Passes

Search period start: 16 April 2014 00:00
Search period end: 26 April 2014 00:00
Orbit: 603 x 630 km, 82.5° (Epoch: 16 April)

Date Brightness Start Highest point End Pass type
(mag) Time Alt. Az. Time Alt. Az. Time Alt. Az.
16 Apr 4.4 03:42:48 10° N 03:47:00 46° E 03:48:05 37° ESE visible
16 Apr 5.3 05:22:06 10° NW 05:24:21 14° W 05:25:08 14° W visible
17 Apr 3.4 03:59:15 10° N 04:03:37 88° E 04:03:59 75° SSE visible
18 Apr 6.2 02:39:43 10° NE 02:42:03 14° ENE 02:42:54 14° E visible
18 Apr 3.8 04:15:58 10° NNW 04:19:58 48° W 04:19:58 48° W visible
19 Apr 5.5 02:55:16 10° NNE 02:58:52 25° ENE 02:58:56 25° ENE visible
19 Apr 4.7 04:32:59 10° NNW 04:36:01 25° WNW 04:36:01 25° WNW visible
20 Apr 4.6 03:11:24 10° N 03:15:02 43° NE 03:15:02 43° NE visible
20 Apr 5.5 04:50:37 10° NW 04:52:07 14° WNW 04:52:07 14° WNW visible
21 Apr 4.1 03:27:50 10° N 03:31:11 53° N 03:31:11 53° N visible
22 Apr 6.3 02:08:20 10° NE 02:10:18 14° ENE 02:10:18 14° ENE visible
22 Apr 4.5 03:44:32 10° NNW 03:47:22 35° NW 03:47:22 35° NW visible
23 Apr 5.7 02:23:51 10° NNE 02:26:31 23° NE 02:26:31 23° NE visible
23 Apr 5.2 04:01:32 10° NNW 04:03:36 21° NW 04:03:36 21° NW visible
24 Apr 5.2 02:39:58 10° N 02:42:45 33° NNE 02:42:45 33° NNE visible
24 Apr 5.8 04:19:07 10° NW 04:19:50 12° WNW 04:19:50 12° WNW visible
25 Apr 4.9 02:56:24 10° N 02:59:02 36° N 02:59:02 36° N visible
